• In Germany
  • List of Countries
  • For 7 days
  • Water Temperature
  • Satellite Maps
  • Weather Map
  • Weather Widgets
  • user-avatar
    Login

    Hourly Weather Kalgoorlie

    Today, 20 September, Thursday

    Time Temperature Precipitation Wind Pressure Humidity
    00:00 +12°C° 0 mm 3 mps 736 mmHg 64%
    01:00 +12°C° 0 mm 3 mps 736 mmHg 66%
    02:00 +11°C° 0 mm 3 mps 736 mmHg 68%
    03:00 +11°C° 0 mm 3 mps 736 mmHg 70%
    04:00 +11°C° 0 mm 3 mps 736 mmHg 72%
    05:00 +10°C° 0 mm 3 mps 736 mmHg 74%
    06:00 +12°C° 0 mm 3 mps 736 mmHg 68%
    07:00 +13°C° 0 mm 3 mps 736 mmHg 62%
    08:00 +15°C° 0 mm 4 mps 736 mmHg 57%
    09:00 +17°C° 0 mm 3 mps 736 mmHg 51%
    10:00 +19°C° 0 mm 3 mps 736 mmHg 44%
    11:00 +20°C° 0 mm 3 mps 736 mmHg 38%
    12:00 +21°C° 0 mm 2 mps 735 mmHg 35%
    13:00 +23°C° 0 mm 2 mps 734 mmHg 31%
    14:00 +24°C° 0 mm 2 mps 733 mmHg 27%
    15:00 +25°C° 0 mm 2 mps 733 mmHg 27%
    16:00 +25°C° 0 mm 2 mps 733 mmHg 26%
    17:00 +25°C° 0 mm 2 mps 733 mmHg 25%
    18:00 +23°C° 0 mm 2 mps 733 mmHg 28%
    19:00 +21°C° 0 mm 2 mps 734 mmHg 31%
    20:00 +20°C° 0 mm 2 mps 734 mmHg 33%
    21:00 +20°C° 0 mm 2 mps 734 mmHg 34%
    22:00 +19°C° 0 mm 3 mps 734 mmHg 34%
    23:00 +19°C° 0 mm 3 mps 734 mmHg 35%

    Tomorrow, 21 September, Friday

    Time Temperature Precipitation Wind Pressure Humidity
    00:00 +18°C° 0 mm 3 mps 734 mmHg 36%
    01:00 +18°C° 0 mm 3 mps 734 mmHg 38%
    02:00 +17°C° 0 mm 4 mps 734 mmHg 39%
    03:00 +17°C° 0 mm 4 mps 733 mmHg 40%
    04:00 +17°C° 0 mm 4 mps 733 mmHg 41%
    05:00 +15°C° 0 mm 4 mps 733 mmHg 42%
    06:00 +18°C° 0 mm 4 mps 734 mmHg 38%
    07:00 +19°C° 0 mm 5 mps 734 mmHg 35%
    08:00 +21°C° 0 mm 6 mps 734 mmHg 32%
    09:00 +23°C° 0 mm 6 mps 734 mmHg 28%
    10:00 +25°C° 0 mm 5 mps 734 mmHg 24%
    11:00 +27°C° 0 mm 5 mps 734 mmHg 20%
    12:00 +28°C° 0 mm 5 mps 734 mmHg 19%
    13:00 +28°C° 0 mm 4 mps 733 mmHg 17%
    14:00 +29°C° 0 mm 4 mps 732 mmHg 16%
    15:00 +29°C° 0 mm 4 mps 732 mmHg 16%
    16:00 +29°C° 0 mm 3 mps 732 mmHg 16%
    17:00 +28°C° 0 mm 3 mps 732 mmHg 16%
    18:00 +27°C° 0 mm 3 mps 733 mmHg 17%
    19:00 +26°C° 0 mm 3 mps 733 mmHg 19%
    20:00 +24°C° 0 mm 3 mps 734 mmHg 21%
    21:00 +24°C° 0 mm 3 mps 734 mmHg 21%
    22:00 +22°C° 0 mm 4 mps 734 mmHg 22%
    23:00 +22°C° 0 mm 4 mps 734 mmHg 22%

    Day after tomorrow, 22 September, Saturday

    Time Temperature Precipitation Wind Pressure Humidity
    00:00 +21°C° 0 mm 3 mps 734 mmHg 24%
    01:00 +20°C° 0 mm 3 mps 733 mmHg 26%
    02:00 +19°C° 0 mm 3 mps 733 mmHg 28%
    03:00 +18°C° 0 mm 3 mps 733 mmHg 29%
    04:00 +18°C° 0 mm 3 mps 733 mmHg 31%
    05:00 +17°C° 0 mm 3 mps 734 mmHg 32%
    06:00 +19°C° 0 mm 4 mps 734 mmHg 29%
    07:00 +21°C° 0 mm 4 mps 734 mmHg 26%
    08:00 +22°C° 0 mm 5 mps 735 mmHg 23%
    09:00 +25°C° 0 mm 5 mps 735 mmHg 20%
    10:00 +28°C° 0 mm 6 mps 735 mmHg 18%
    11:00 +30°C° 0 mm 6 mps 735 mmHg 15%
    12:00 +30°C° 0 mm 6 mps 734 mmHg 15%
    13:00 +32°C° 0 mm 6 mps 733 mmHg 14%
    14:00 +32°C° 0 mm 6 mps 733 mmHg 14%
    15:00 +30°C° 0 mm 5 mps 733 mmHg 15%
    16:00 +30°C° 0 mm 5 mps 732 mmHg 16%
    17:00 +29°C° 0 mm 4 mps 732 mmHg 17%
    18:00 +29°C° 0 mm 4 mps 733 mmHg 19%
    19:00 +28°C° 0 mm 4 mps 733 mmHg 20%
    20:00 +27°C° 0 mm 4 mps 733 mmHg 22%
    21:00 +26°C° 0.2 mm 3 mps 733 mmHg 27%
    22:00 +24°C° 0.2 mm 3 mps 733 mmHg 32%
    23:00 +22°C° 0.2 mm 3 mps 733 mmHg 37%

    23 September, Sunday

    Time Temperature Precipitation Wind Pressure Humidity
    00:00 +22°C° 0.3 mm 4 mps 733 mmHg 42%
    01:00 +21°C° 0.3 mm 5 mps 733 mmHg 47%
    02:00 +20°C° 0.3 mm 6 mps 733 mmHg 52%
    03:00 +19°C° 0.1 mm 5 mps 733 mmHg 52%
    04:00 +19°C° 0.1 mm 5 mps 733 mmHg 52%
    05:00 +18°C° 0.1 mm 4 mps 733 mmHg 52%
    06:00 +20°C° 0 mm 5 mps 733 mmHg 46%
    07:00 +21°C° 0 mm 5 mps 733 mmHg 40%
    08:00 +23°C° 0 mm 6 mps 734 mmHg 34%
    09:00 +26°C° 0 mm 5 mps 734 mmHg 30%
    10:00 +28°C° 0 mm 5 mps 734 mmHg 25%
    11:00 +30°C° 0 mm 4 mps 733 mmHg 21%
    12:00 +32°C° 0 mm 4 mps 733 mmHg 19%
    13:00 +32°C° 0 mm 4 mps 732 mmHg 17%
    14:00 +33°C° 0 mm 4 mps 731 mmHg 15%
    15:00 +33°C° 0 mm 3 mps 731 mmHg 16%
    16:00 +31°C° 0 mm 2 mps 731 mmHg 16%
    17:00 +31°C° 0 mm 1 mps 731 mmHg 17%
    18:00 +30°C° 0 mm 2 mps 732 mmHg 18%
    19:00 +29°C° 0 mm 2 mps 732 mmHg 19%
    20:00 +28°C° 0 mm 2 mps 732 mmHg 20%
    21:00 +28°C° 0 mm 2 mps 732 mmHg 21%
    22:00 +27°C° 0 mm 3 mps 732 mmHg 21%
    23:00 +27°C° 0 mm 4 mps 732 mmHg 21%

    24 September, Monday

    Time Temperature Precipitation Wind Pressure Humidity
    00:00 +25°C° 0 mm 3 mps 731 mmHg 25%
    01:00 +24°C° 0 mm 3 mps 731 mmHg 28%
    02:00 +21°C° 0 mm 2 mps 731 mmHg 32%
    03:00 +21°C° 0 mm 2 mps 731 mmHg 34%
    04:00 +21°C° 0 mm 2 mps 731 mmHg 37%
    05:00 +20°C° 0 mm 3 mps 731 mmHg 39%
    06:00 +21°C° 0 mm 3 mps 731 mmHg 39%
    07:00 +23°C° 0 mm 2 mps 731 mmHg 39%
    08:00 +23°C° 0 mm 2 mps 732 mmHg 39%
    09:00 +26°C° 0 mm 3 mps 731 mmHg 33%
    10:00 +28°C° 0 mm 3 mps 731 mmHg 28%
    11:00 +30°C° 0 mm 3 mps 731 mmHg 22%
    12:00 +33°C° 0 mm 4 mps 730 mmHg 20%
    13:00 +34°C° 0 mm 5 mps 729 mmHg 18%
    14:00 +35°C° 0 mm 6 mps 729 mmHg 16%
    15:00 +34°C° 0 mm 5 mps 728 mmHg 17%
    16:00 +33°C° 0 mm 5 mps 728 mmHg 19%
    17:00 +33°C° 0 mm 4 mps 728 mmHg 20%
    18:00 +30°C° 0 mm 4 mps 729 mmHg 23%
    19:00 +28°C° 0 mm 3 mps 729 mmHg 25%
    20:00 +27°C° 0 mm 3 mps 729 mmHg 28%
    21:00 +26°C° 0 mm 4 mps 729 mmHg 30%
    22:00 +23°C° 0 mm 4 mps 729 mmHg 33%
    23:00 +22°C° 0 mm 4 mps 729 mmHg 36%

    25 September, Tuesday

    Time Temperature Precipitation Wind Pressure Humidity
    00:00 +21°C° 0.1 mm 5 mps 729 mmHg 46%
    01:00 +20°C° 0.1 mm 5 mps 729 mmHg 57%
    02:00 +17°C° 0.1 mm 5 mps 728 mmHg 67%
    03:00 +17°C° 0 mm 5 mps 729 mmHg 71%
    04:00 +17°C° 0 mm 4 mps 729 mmHg 75%
    05:00 +15°C° 0 mm 4 mps 729 mmHg 78%
    06:00 +17°C° 0 mm 4 mps 729 mmHg 73%
    07:00 +18°C° 0 mm 4 mps 730 mmHg 67%
    08:00 +19°C° 0 mm 3 mps 730 mmHg 62%
    09:00 +21°C° 0 mm 3 mps 730 mmHg 53%
    10:00 +23°C° 0 mm 4 mps 730 mmHg 44%
    11:00 +26°C° 0 mm 4 mps 729 mmHg 35%
    12:00 +27°C° 0 mm 5 mps 729 mmHg 30%
    13:00 +28°C° 0 mm 6 mps 728 mmHg 25%
    14:00 +29°C° 0 mm 6 mps 728 mmHg 21%
    15:00 +29°C° 0 mm 6 mps 728 mmHg 21%
    16:00 +28°C° 0 mm 6 mps 728 mmHg 21%
    17:00 +28°C° 0 mm 6 mps 728 mmHg 21%
    18:00 +26°C° 0 mm 6 mps 728 mmHg 24%
    19:00 +24°C° 0 mm 6 mps 729 mmHg 26%
    20:00 +22°C° 0 mm 5 mps 730 mmHg 28%
    21:00 +21°C° 0 mm 6 mps 730 mmHg 32%
    22:00 +20°C° 0 mm 6 mps 730 mmHg 36%
    23:00 +19°C° 0 mm 6 mps 730 mmHg 40%
    Show more